Vorticity
7 7 7 7 7 7 7 6 5 5 4 4 3 2 1 1 1 1 2 3 3 4 4 4 4 4 4 5 5 5 5 5 5 5 5 5 5 5 5 5 5 5 4 4 3 3 2 2 2 2 2 3 6 10 15 20 22 22 20 18 16 14 13 12 12 11 11 10 10 9 8 5 3 3 4 7 8 8 6 5 4 3 2 2 3 4 5 6 6 6 5 4 3 3 4 5 5 5 4 3 2 2 2
7 7 7 7 7 7 7 7 6 6 5 5 4 3 2 2 1 1 1 2 3 4 4 4 4 4 4 4 5 5 6 6 6 6 6 6 5 5 5 5 5 5 5 4 4 3 3 2 2 2 1 2 4 6 10 16 20 23 23 21 19 16 15 14 13 12 11 11 10 10 10 7 5 3 3 5 7 8 8 7 6 5 3 2 2 3 4 5 6 6 6 5 4 3 3 4 5 6 5 4 2 2 2
7 7 7 7 7 7 7 7 7 6 6 6 5 4 3 2 2 1 1 2 3 3 4 4 4 4 4 4 5 5 6 6 6 6 7 7 6 6 6 5 5 5 5 4 4 4 3 3 2 2 2 2 2 4 6 11 16 21 24 23 22 19 17 15 14 13 12 11 10 10 10 9 7 4 3 3 5 7 8 8 7 6 5 3 2 2 3 4 5 6 6 5 5 4 3 4 5 6 6 4 3 2 1
7 7 7 7 7 7 7 7 7 7 6 6 6 5 4 3 2 1 1 1 2 3 4 4 4 3 3 4 4 5 5 5 6 6 7 7 7 7 6 6 6 5 5 5 4 4 4 4 3 3 2 2 2 2 4 7 11 16 21 23 23 22 20 18 16 15 13 12 11 10 10 10 9 7 3 3 3 5 7 8 7 7 6 5 3 2 2 3 4 6 6 6 5 4 4 4 5 6 6 5 4 3 2
7 7 7 7 7 7 7 7 7 7 7 6 6 6 5 4 3 2 1 1 2 3 3 4 4 3 3 3 4 4 4 4 5 6 6 6 7 7 7 7 6 6 5 5 5 5 5 4 4 3 3 2 2 2 2 5 7 11 17 21 23 24 23 21 18 16 15 14 13 11 10 10 9 9 6 4 3 3 5 6 7 7 7 6 5 3 2 3 4 5 6 6 6 5 4 4 5 5 6 6 4 3 3
7 7 7 7 7 7 7 7 7 7 7 7 7 6 6 5 4 3 2 1 2 2 3 3 3 3 3 3 3 3 3 4 4 5 5 6 6 7 7 7 7 7 6 6 5 5 5 5 4 4 3 3 2 2 2 3 5 8 12 17 21 24 24 23 21 19 17 16 14 13 11 10 10 9 8 5 4 3 2 4 6 7 7 7 6 5 4 3 4 4 6 6 6 6 5 4 5 5 6 6 5 3 3
7 7 7 7 7 7 7 7 7 7 7 7 7 6 6 5 4 3 2 2 2 2 3 3 3 3 3 3 2 2 2 3 3 4 4 5 6 6 6 7 7 7 7 6 6 6 6 5 5 5 4 3 3 2 2 2 3 5 8 13 17 21 24 24 23 22 19 17 16 15 14 12 10 9 9 7 6 4 2 2 3 5 7 8 8 7 5 4 4 4 5 6 7 6 6 5 5 5 6 6 5 4 3
8 8 8 8 8 7 7 7 7 7 7 7 7 7 6 6 5 4 3 2 2 2 2 3 3 3 3 2 2 2 1 2 2 3 3 4 5 6 6 6 6 6 7 7 6 6 6 6 6 5 5 4 4 3 2 2 2 3 5 8 13 18 22 24 25 24 23 20 18 16 16 14 12 10 9 9 7 5 4 2 2 3 5 7 8 8 7 5 4 4 5 6 7 7 6 6 5 6 7 7 6 5 3
8 8 8 8 8 8 8 8 8 7 7 7 7 7 7 6 6 5 3 2 2 2 2 3 3 3 3 2 2 1 1 1 1 2 2 3 4 5 6 6 6 6 6 6 7 6 6 6 6 6 6 5 4 4 3 2 2 2 3 5 8 13 18 22 25 26 25 23 20 18 17 16 14 12 10 9 8 6 6 4 3 2 2 4 6 7 8 7 5 4 4 5 6 7 7 6 6 6 6 6 6 5 4
9 9 8 8 8 8 8 8 8 8 8 8 7 7 7 7 6 5 4 3 2 2 2 2 3 3 3 2 2 1 0 0 1 1 2 2 3 4 5 5 6 6 6 6 6 6 6 6 6 6 6 6 5 4 4 3 2 2 1 3 5 8 13 18 22 25 27 26 24 21 18 17 16 15 12 10 9 8 6 7 5 2 0 2 4 6 8 7 6 5 4 4 5 6 7 6 6 6 6 6 6 5 4
9 9 9 9 9 8 8 8 8 8 8 8 8 7 7 7 7 6 5 4 3 2 2 2 2 3 3 2 2 1 0 0 0 0 1 2 3 4 4 5 5 6 6 6 6 6 6 6 6 7 7 6 6 5 4 4 3 2 1 2 2 4 7 12 18 22 26 28 27 25 22 19 18 17 15 12 10 8 6 8 7 4 2 2 2 4 6 8 7 7 5 4 4 4 5 6 6 6 6 6 6 6 5
10 9 9 9 9 9 8 8 8 8 8 8 8 8 8 7 7 6 6 4 3 2 2 2 2 3 3 2 2 1 1 0 0 0 1 1 2 3 4 4 5 5 6 6 6 6 6 6 6 7 7 6 6 6 5 4 4 3 2 2 2 2 4 7 12 17 22 26 28 29 26 22 20 18 17 15 13 10 7 6 7 7 4 2 2 2 4 6 8 8 7 5 4 3 4 5 5 6 6 6 7 7 6
10 10 9 9 9 9 9 8 8 8 8 8 8 8 8 8 7 7 6 5 4 3 2 2 2 2 2 2 2 2 1 1 1 1 1 1 2 3 3 4 4 5 5 6 6 6 6 6 6 7 7 7 6 6 5 5 4 3 3 2 2 2 2 4 7 11 16 22 26 29 30 27 23 20 19 18 15 13 10 7 7 8 7 4 2 1 2 5 6 8 8 7 5 4 3 4 5 5 5 6 7 7 6
10 10 10 9 9 9 8 8 8 8 8 8 8 8 8 8 8 7 7 6 5 4 3 3 2 2 2 2 2 2 1 1 1 1 1 2 2 3 3 4 4 4 5 5 6 6 6 6 7 7 7 7 6 6 6 5 5 4 3 3 2 2 2 2 3 6 10 16 21 26 30 30 27 23 20 19 18 15 12 10 9 9 9 7 4 1 1 3 4 6 7 8 7 6 4 4 4 5 5 6 6 7 7
10 10 10 9 9 9 8 8 8 8 8 8 8 8 8 8 8 7 7 6 6 5 4 3 3 2 2 2 2 2 2 2 1 1 2 2 2 3 3 3 4 4 5 5 6 6 7 7 7 7 7 7 6 6 6 6 5 5 4 3 3 2 2 2 2 3 6 10 15 20 26 31 31 28 23 21 19 18 15 12 9 8 9 9 7 4 1 2 3 4 5 7 8 8 7 5 5 5 5 5 6 7 7
10 10 9 9 9 8 8 8 8 8 8 8 7 7 7 7 7 7 7 7 6 5 4 4 3 3 2 2 2 2 2 2 2 2 2 2 2 3 3 3 4 4 5 5 6 6 7 7 7 6 6 6 6 6 6 6 6 5 4 4 3 3 2 2 2 2 3 6 10 15 20 26 31 32 28 24 21 20 18 15 11 9 8 9 9 6 2 2 3 4 4 5 7 8 9 7 6 5 5 6 6 6 7
10 10 9 9 9 8 8 8 8 8 7 7 7 7 7 7 7 7 7 7 6 6 5 4 4 3 3 2 2 2 2 2 2 2 2 2 2 3 3 3 4 4 5 5 6 6 7 7 7 6 6 6 6 6 6 6 6 5 5 4 4 3 3 2 2 2 2 4 6 10 14 20 27 31 33 28 24 22 20 18 14 11 9 9 9 8 5 3 3 4 4 4 5 7 9 8 7 6 6 6 6 7 7
9 9 9 9 8 8 8 8 8 7 7 7 7 7 7 7 7 7 7 7 6 6 5 5 4 4 3 3 3 2 2 2 2 2 2 2 3 3 3 4 4 5 5 5 6 6 6 6 6 6 6 6 6 6 6 6 6 6 5 5 4 4 3 3 2 2 2 3 4 7 10 14 20 27 33 32 28 24 22 20 17 14 11 10 9 9 7 5 3 3 4 4 5 6 8 8 8 7 6 6 7 7 8
9 9 9 8 8 8 8 7 7 7 7 7 7 7 7 7 7 7 7 7 6 6 6 5 5 4 4 3 3 3 3 3 3 3 3 3 3 3 3 4 4 5 5 6 6 6 6 6 6 6 6 5 5 6 6 6 6 6 5 5 5 4 4 3 3 2 2 2 3 4 7 10 14 20 28 32 32 28 24 22 20 17 13 11 10 9 9 7 4 2 3 4 5 6 7 8 8 8 7 6 7 8 9
9 8 8 8 8 8 7 7 7 7 7 7 7 7 7 7 7 7 7 6 6 6 6 6 5 5 4 4 4 3 3 3 3 3 3 3 3 3 4 4 5 5 5 6 6 6 6 6 6 6 5 5 5 5 5 6 6 6 5 5 5 4 4 4 3 3 2 2 2 3 4 7 10 14 21 28 32 32 27 24 22 19 16 12 10 10 11 9 6 3 2 3 4 5 6 8 9 9 8 7 7 8 9
8 8 8 8 8 7 7 7 7 7 7 7 7 7 7 7 7 7 7 6 6 6 6 6 5 5 5 4 4 4 4 4 3 3 3 3 4 4 4 5 5 5 6 6 6 6 6 6 6 5 5 5 5 5 5 5 5 5 5 5 5 5 4 4 3 3 3 2 2 2 3 4 6 9 13 21 28 32 32 27 24 21 19 15 11 10 12 10 8 5 2 2 3 4 5 6 8 9 9 8 7 7 8
8 8 8 8 8 7 7 7 7 7 7 7 7 7 7 7 7 7 7 7 6 6 6 6 6 5 5 5 5 4 4 4 4 4 4 4 4 4 5 5 5 5 6 6 5 5 5 5 5 5 5 5 5 4 5 5 5 5 5 5 5 5 5 4 4 3 3 3 2 2 2 3 4 6 8 13 21 28 33 31 27 24 22 18 14 10 11 11 10 7 4 3 2 3 3 4 6 7 8 8 7 7 8
8 8 8 8 8 7 7 7 7 7 7 7 7 7 7 7 7 7 7 7 7 6 6 6 6 6 5 5 5 5 4 4 4 4 4 4 5 5 5 5 5 6 6 5 5 5 5 5 5 5 5 5 4 4 4 5 5 5 5 5 5 5 5 5 4 4 3 3 2 2 2 2 3 4 6 8 13 20 29 32 31 27 23 22 17 13 10 11 11 9 7 5 4 3 2 3 4 5 6 6 6 6 6
8 8 8 8 8 8 7 7 7 7 7 7 7 7 7 7 7 7 7 7 7 7 7 6 6 6 6 6 5 5 5 5 5 4 5 5 5 5 5 5 5 5 5 5 5 5 5 5 5 5 5 5 4 4 4 4 5 5 5 5 5 5 5 5 4 4 4 3 3 2 2 2 3 3 4 6 8 13 20 29 32 31 26 24 21 17 12 10 10 10 9 7 5 4 3 3 3 3 4 4 4 4 5
8 8 8 8 8 8 8 7 7 7 7 7 7 7 7 7 7 7 7 7 7 7 7 7 6 6 6 6 5 5 5 5 5 5 5 5 5 5 5 5 5 5 5 5 5 5 5 5 5 5 5 5 5 4 4 4 4 5 5 5 5 5 5 5 5 4 4 4 3 3 2 2 2 3 4 5 6 8 11 20 28 32 31 26 23 21 17 12 10 10 10 8 6 5 4 4 4 4 4 3 3 3 3
8 8 8 8 8 8 8 8 8 8 7 7 7 7 7 7 7 7 7 7 7 7 7 7 7 6 6 6 6 5 5 5 5 5 5 5 5 5 5 5 5 5 5 5 5 5 5 5 5 5 5 5 5 4 4 4 4 4 5 5 5 5 5 5 5 5 4 4 4 3 3 2 2 2 3 4 5 6 7 12 20 28 33 30 26 23 21 16 11 9 9 9 8 6 4 4 4 4 4 4 3 2 2
8 8 8 8 8 8 8 8 8 8 8 8 7 7 7 7 7 7 7 7 7 7 7 7 7 6 6 6 6 6 5 5 5 5 5 5 5 5 5 5 5 5 5 5 4 4 4 5 5 5 5 5 5 4 4 4 4 4 4 5 5 5 5 5 5 5 5 4 4 4 3 3 2 2 3 3 5 6 7 7 12 19 29 32 30 26 23 20 15 10 8 9 9 7 5 4 3 3 4 4 3 3 2
8 8 8 8 8 8 8 8 8 8 8 8 8 8 7 7 7 7 7 7 7 7 7 7 7 6 6 6 6 6 6 6 5 5 5 5 5 5 5 5 5 5 5 5 4 4 4 4 4 5 5 5 5 4 4 4 4 4 4 5 5 5 5 4 4 4 5 5 4 4 4 3 3 2 2 3 4 5 7 7 8 11 19 29 32 30 25 23 19 13 8 8 9 8 7 4 3 2 3 3 4 3 3
7 8 8 8 8 8 8 8 8 8 8 8 8 8 8 7 7 7 7 7 7 7 7 7 7 6 6 6 6 6 6 6 6 6 5 5 5 5 5 5 5 5 5 4 4 4 4 4 5 5 5 4 4 4 4 4 4 4 4 5 5 5 5 4 4 4 4 5 4 4 4 3 3 3 2 3 3 5 6 7 7 8 10 20 29 32 29 25 22 17 11 8 8 9 8 6 4 3 2 2 3 4 4
7 7 7 8 8 8 8 8 8 8 8 8 8 8 8 8 7 7 7 7 7 7 7 7 7 6 6 6 6 6 6 6 6 6 6 5 5 5 5 5 5 5 5 4 4 4 5 5 5 5 5 5 4 4 4 4 4 4 4 4 5 5 5 4 4 4 4 4 4 4 4 4 3 3 2 2 3 4 6 7 8 8 7 12 21 30 32 28 25 21 16 10 8 8 6 7 9 9 4 3 3 4 4
7 7 7 8 8 8 8 8 9 9 9 9 9 8 8 8 8 7 7 7 7 7 7 6 6 6 6 6 6 6 6 6 6 6 6 5 5 5 5 5 5 5 4 4 4 5 5 5 5 5 5 5 4 4 4 4 4 4 4 4 5 5 5 5 4 4 4 4 4 4 4 4 3 3 3 2 2 3 5 7 8 9 8 8 13 22 32 30 27 23 20 13 10 7 4 5 11 19 29 19 10 5 3
6 7 7 7 7 8 8 8 8 9 9 9 9 9 9 8 8 8 8 7 7 7 7 6 6 6 6 6 6 6 5 5 5 5 5 5 5 5 5 4 4 4 4 4 5 5 5 5 6 6 6 5 5 4 4 3 3 3 4 4 5 5 5 5 5 5 4 4 4 4 4 4 3 3 3 2 2 3 4 6 8 10 10 8 9 14 25 30 29 26 22 16 12 8 2 -4 -4 11 51 50 31 10 2
6 6 6 6 7 7 7 7 7 8 8 8 8 9 9 8 8 8 8 8 8 7 7 7 7 7 6 6 6 6 6 5 5 5 5 5 5 5 5 4 4 5 5 5 5 5 5 6 6 6 6 6 5 5 4 4 3 3 3 4 4 5 5 5 5 5 5 4 4 4 4 4 4 3 3 2 2 3 3 5 7 10 11 10 8 9 15 26 29 28 24 19 14 9 3 -14 -24 -8 55 69 49 20 2
6 6 6 6 6 6 6 6 6 7 7 7 7 8 8 8 8 8 8 8 8 8 8 8 8 7 7 7 7 7 6 6 6 6 6 6 6 5 5 5 5 5 5 5 5 6 6 6 6 6 6 6 6 5 5 4 3 3 3 3 4 5 5 6 6 6 5 5 5 5 4 4 4 3 3 2 2 3 4 5 7 9 12 12 10 8 8 19 26 30 27 22 16 12 9 -11 -27 -17 39 60 49 25 6
6 6 5 5 5 5 5 5 6 6 6 6 6 6 7 7 7 7 8 8 8 8 8 8 8 8 8 8 8 8 8 7 7 7 7 7 7 7 6 6 6 6 6 6 6 6 6 6 7 7 7 7 7 6 5 5 4 3 3 3 4 5 5 6 6 6 6 5 5 5 5 4 4 3 3 2 3 3 4 6 8 10 12 13 12 10 7 12 21 28 29 24 18 13 12 4 -16 -21 16 50 47 27 9
6 6 5 5 5 5 5 5 5 5 5 5 5 6 6 6 6 6 6 7 7 7 8 8 8 8 8 8 8 8 8 8 8 8 8 8 8 8 8 7 7 7 7 7 7 7 7 7 7 7 7 7 7 7 6 5 4 4 3 3 4 5 5 6 6 6 6 6 6 5 5 4 4 3 2 2 3 4 5 7 9 11 12 14 14 13 9 9 15 24 30 26 20 15 12 11 -7 -22 -16 25 36 27 12
6 6 6 6 6 6 5 5 5 5 5 5 5 5 5 5 5 5 6 6 6 6 7 7 7 7 8 8 8 8 8 8 8 8 8 9 9 9 9 9 9 8 8 8 8 8 8 8 8 8 8 8 8 7 6 5 5 4 3 3 4 5 6 6 7 7 7 6 6 6 5 5 4 3 2 3 3 4 6 8 9 11 13 14 15 15 14 10 12 18 27 26 22 17 14 14 2 -18 -40 -11 11 23 19
6 6 6 6 6 6 6 6 6 6 6 6 6 6 6 6 6 5 5 6 6 6 6 7 7 7 7 7 8 8 8 8 9 9 9 9 9 9 9 9 9 9 9 9 9 9 9 8 8 8 8 8 8 7 7 6 5 4 4 4 4 5 6 7 7 7 7 7 7 6 6 5 4 3 3 3 4 5 7 8 10 12 13 15 16 18 17 13 11 14 22 24 22 19 17 17 10 -6 -37 -38 -21 2 19
6 6 6 6 6 6 6 6 6 6 6 6 6 6 6 7 6 6 6 6 6 6 7 7 7 7 7 8 8 8 8 8 9 9 9 9 9 10 10 10 10 10 10 10 10 9 9 9 9 9 8 8 8 7 7 6 5 4 4 4 5 5 6 7 8 8 8 8 7 7 6 5 4 3 3 3 4 6 8 9 11 12 14 16 18 19 20 17 13 11 17 21 21 20 19 19 17 9 -13 -35 -36 -21 5
6 6 6 6 6 6 7 7 7 7 7 7 7 7 7 7 7 7 7 7 7 7 7 8 8 9 8 8 9 9 9 9 9 9 10 10 10 10 10 10 10 10 11 10 10 10 10 9 9 9 8 8 8 7 7 6 5 5 4 5 5 6 7 7 8 8 8 8 8 7 6 5 4 3 2 3 5 7 9 11 13 14 15 17 19 21 23 20 15 11 13 17 18 19 20 20 20 16 7 -16 -25 -21 -3
6 6 7 7 7 7 7 7 8 8 8 8 9 9 9 8 9 9 8 8 8 8 8 8 9 9 9 9 9 9 10 9 10 10 10 10 10 10 11 11 11 11 11 10 10 10 10 9 9 9 9 8 8 7 6 6 5 5 5 5 6 7 7 8 8 8 9 8 8 7 6 5 4 3 3 4 6 8 11 13 15 16 17 19 21 23 25 23 18 13 11 13 15 17 19 21 21 19 15 4 -6 -9 0
7 7 7 7 7 8 8 8 8 9 9 9 9 10 10 10 10 9 9 9 9 9 9 9 9 9 10 10 10 10 10 10 10 10 10 11 11 11 11 11 11 11 10 10 10 10 10 9 9 9 9 8 7 7 6 6 5 5 5 6 6 7 8 8 8 9 9 9 8 7 6 4 3 3 3 5 7 10 12 15 17 18 19 21 23 25 27 25 20 14 10 11 13 15 17 20 21 20 16 11 3 -4 -5
7 7 7 8 8 8 8 9 9 9 9 10 10 10 10 10 10 10 10 10 10 10 9 9 9 10 10 10 10 10 10 10 10 10 10 11 11 11 11 11 11 11 10 10 10 10 9 9 9 8 8 7 7 6 6 6 5 6 6 6 7 7 8 8 9 9 9 9 8 7 5 4 3 3 5 7 9 11 14 16 18 20 21 23 26 28 30 27 22 16 11 10 11 12 15 19 21 21 16 12 6 -2 -12
7 8 8 8 8 9 9 9 9 9 9 10 10 10 10 10 10 10 10 10 10 10 10 9 9 10 10 10 10 10 11 11 11 11 11 11 11 11 11 11 11 10 10 10 10 9 9 9 8 8 8 7 6 6 6 6 6 6 6 7 8 8 9 9 9 9 9 9 7 6 4 4 4 5 6 8 10 12 15 17 19 21 23 26 29 31 32 29 23 17 11 10 9 10 12 17 20 22 18 11 8 5 -2
8 8 8 8 8 8 9 9 9 9 9 9 10 10 10 10 10 10 10 10 10 10 10 10 9 10 10 10 10 10 11 11 11 11 11 11 11 11 11 10 10 10 10 10 9 9 8 8 8 8 7 7 6 6 6 6 7 7 7 8 8 9 9 9 10 9 9 8 6 5 4 4 5 6 8 10 11 13 15 18 21 24 27 31 34 35 34 30 25 18 12 9 9 9 11 15 19 21 20 13 9 7 3
7 7 8 8 8 8 8 8 8 8 9 9 9 9 10 10 10 10 10 10 10 10 10 10 10 10 10 10 10 10 10 10 10 10 10 10 10 10 10 10 10 10 9 9 9 9 8 8 7 7 7 7 7 7 7 7 7 8 8 9 9 9 9 9 9 9 8 7 5 4 4 4 6 7 9 11 12 14 16 19 24 30 35 39 40 39 36 31 26 19 12 9 8 8 10 14 18 20 19 15 11 7 2
7 7 7 7 7 7 7 7 7 8 8 8 9 9 9 9 9 10 10 10 10 10 10 10 10 10 10 10 10 10 10 10 10 10 10 10 10 10 10 10 9 9 9 9 9 9 8 8 7 7 7 7 7 7 7 7 8 8 8 9 9 9 9 9 9 8 7 6 5 4 4 5 7 8 10 11 13 15 18 23 31 38 44 47 46 42 36 32 27 21 13 9 7 7 9 12 16 18 17 14 11 8 4
6 6 6 6 6 6 6 7 7 7 7 8 8 8 9 9 9 9 9 9 9 9 9 9 9 10 9 10 10 10 10 10 10 10 9 9 9 9 9 9 9 9 8 8 9 8 8 8 7 7 7 7 7 7 7 8 8 8 9 9 9 9 9 8 8 7 6 5 4 4 5 6 8 9 10 12 14 17 21 29 39 47 53 53 49 43 35 31 27 22 15 10 7 6 8 12 16 18 17 15 11 8 7
5 5 5 6 6 6 6 6 6 6 7 7 8 8 8 8 9 9 9 9 9 9 9 9 9 9 9 9 9 9 9 9 9 9 9 9 9 9 9 8 8 8 8 8 8 8 8 7 7 7 7 7 7 7 7 8 8 8 9 9 8 8 8 7 7 6 6 5 5 5 6 7 8 9 10 12 15 19 26 37 47 54 58 56 50 42 34 31 28 23 16 10 7 6 6 11 15 18 18 15 10 6 3
5 5 5 5 5 6 6 6 6 6 6 7 7 7 7 8 8 8 9 9 9 9 9 9 9 9 9 9 9 9 9 9 8 8 8 8 8 8 9 8 8 8 8 7 7 7 7 7 7 6 7 7 7 7 7 8 8 8 8 8 8 7 7 7 7 6 6 5 6 6 7 8 9 10 11 14 18 24 33 44 53 59 60 56 49 41 34 31 29 25 17 11 7 5 5 10 15 19 21 17 12 6 0
5 5 5 5 6 6 6 6 6 6 6 6 6 7 7 7 8 8 8 9 9 9 9 9 9 9 8 8 8 8 8 8 8 8 8 8 8 7 7 8 8 8 8 8 7 7 7 7 6 6 6 6 7 7 7 7 7 8 8 7 7 7 7 7 7 7 6 6 6 7 8 9 10 11 13 16 21 29 39 49 56 59 60 55 48 41 34 32 30 26 19 12 8 5 5 9 14 19 22 19 14 5 -6
5 5 5 6 6 6 6 6 6 6 6 7 7 7 7 7 7 8 8 8 8 9 9 9 9 9 8 8 8 8 8 7 7 7 7 7 7 7 7 7 7 8 8 9 9 8 7 7 7 7 7 7 7 7 7 7 7 7 7 7 7 7 7 8 7 7 7 6 7 8 9 10 11 12 14 18 24 33 43 50 55 57 57 54 48 42 36 34 32 28 21 14 9 6 5 8 13 18 21 20 15 5 -10
5 5 5 6 6 6 6 6 7 7 7 7 7 7 7 7 7 7 8 8 8 8 9 9 8 9 9 8 8 8 7 7 7 7 7 7 7 7 7 7 7 7 7 7 8 9 9 9 9 8 7 7 7 7 7 7 7 7 8 7 8 8 8 8 7 7 7 7 7 8 10 10 12 13 16 21 28 36 44 48 51 53 53 53 50 45 41 37 34 30 22 15 10 7 5 7 12 17 21 20 16 8 -2
5 5 5 6 6 6 6 6 7 7 7 7 7 7 7 7 7 7 7 8 8 8 8 9 9 9 9 9 8 8 7 7 7 7 7 7 7 7 7 7 7 6 6 6 6 7 9 9 9 9 8 7 7 7 7 7 7 8 8 8 8 8 8 8 7 7 7 7 8 9 10 11 13 15 18 24 31 37 43 45 47 48 48 48 47 46 42 39 35 31 24 17 11 8 5 7 11 16 21 21 17 10 2
5 5 5 6 6 6 6 6 7 7 7 7 7 7 7 7 7 7 7 7 8 8 8 8 9 9 9 9 9 8 8 7 7 6 7 7 7 7 7 7 7 7 7 8 8 8 7 7 8 8 8 8 8 8 8 8 8 8 8 8 8 8 8 8 7 7 7 7 8 10 11 12 14 17 21 27 33 37 40 42 44 46 46 43 41 39 36 38 36 32 25 18 13 9 6 6 10 15 21 21 17 11 4
5 5 6 6 6 6 6 6 7 7 7 7 7 7 7 7 7 7 7 7 8 8 8 8 9 9 9 9 9 9 9 8 7 7 7 7 7 7 7 7 8 7 7 8 8 8 7 6 7 8 10 9 8 8 8 8 8 8 8 8 8 8 8 7 7 7 7 7 9 11 12 13 16 19 24 28 32 34 37 39 41 42 42 38 35 32 31 36 36 32 27 20 14 10 7 6 9 14 20 21 17 11 6
5 5 6 6 6 6 6 6 6 7 7 7 7 7 7 7 7 7 8 8 8 8 8 8 8 9 9 9 9 9 10 9 9 8 7 7 7 7 7 7 8 8 8 7 7 7 8 7 8 8 8 9 9 9 8 8 8 8 8 8 8 7 7 7 7 7 7 8 9 11 13 15 17 20 25 27 29 31 35 37 39 39 37 32 29 28 30 34 35 33 29 21 16 11 7 7 9 13 19 21 18 13 7
5 5 6 6 6 6 6 6 6 6 6 7 7 7 7 7 8 8 8 8 8 8 8 8 8 9 9 9 9 9 10 10 10 10 9 8 8 8 7 7 7 8 8 8 8 8 8 8 9 9 6 9 10 10 9 9 8 8 8 8 7 7 7 7 7 7 7 8 10 11 13 15 18 21 25 27 27 28 31 35 37 37 35 30 27 26 29 33 34 32 28 21 17 13 9 7 9 13 18 20 18 14 10
5 5 6 6 6 6 6 6 6 6 6 6 7 7 7 8 8 8 7 8 7 8 8 8 9 9 9 9 9 10 10 10 10 10 10 10 9 9 8 8 8 8 8 8 9 9 8 9 9 9 7 7 8 10 11 10 9 8 8 7 7 7 7 7 7 7 8 9 10 11 13 16 19 22 25 26 25 25 26 30 33 34 34 30 28 28 29 31 32 31 24 19 16 14 11 8 9 12 18 20 19 15 12
5 5 5 6 6 6 6 6 6 6 6 6 6 7 7 7 7 7 8 8 8 8 8 8 8 9 9 9 9 9 10 10 10 10 10 11 11 10 9 9 9 9 8 8 8 9 9 10 9 9 9 8 6 6 9 10 9 9 8 8 7 7 7 6 7 7 8 9 10 12 13 15 19 22 25 25 24 24 24 25 28 30 32 30 29 29 31 31 29 26 20 17 16 15 11 9 9 12 17 19 19 17 14
6 6 5 5 5 5 5 5 6 6 6 6 6 7 7 7 7 8 8 8 8 8 8 8 9 9 9 9 9 9 9 9 10 10 10 10 11 11 10 10 10 10 10 9 9 9 9 10 10 10 10 9 8 7 6 7 8 9 9 9 8 7 7 6 6 7 8 9 11 12 14 15 18 21 24 24 23 23 22 23 25 27 29 29 28 28 30 29 26 22 17 16 16 15 12 9 9 12 16 19 19 19 17
Height
5876 5876 5876 5876 5876 5876 5876 5877 5877 5877 5877 5877 5877 5877 5877 5877 5877 5877 5877 5877 5877 5877 5877 5876 5876 5876 5876 5876 5875 5875 5875 5875 5875 5875 5874 5874 5874 5874 5874 5873 5873 5873 5873 5873 5873 5873 5873 5873 5872 5872 5872 5871 5871 5871 5871 5871 5870 5870 5870 5870 5870 5870 5870 5871 5871 5872 5872 5873 5874 5875 5875 5877 5878 5878 5880 5880 5880 5880 5881 5882 5883 5884 5884 5885 5885 5886 5887 5887 5888 5889 5890 5890 5891 5892 5892 5893 5894 5895 5896 5897 5898 5898 5899
5875 5875 5875 5875 5875 5875 5875 5875 5875 5875 5875 5876 5876 5876 5876 5876 5876 5876 5876 5876 5876 5876 5876 5876 5875 5875 5875 5875 5875 5875 5874 5874 5874 5873 5873 5873 5873 5873 5872 5872 5872 5872 5871 5871 5871 5871 5871 5871 5871 5871 5870 5870 5870 5870 5870 5869 5869 5869 5869 5868 5868 5868 5868 5869 5869 5870 5870 5871 5872 5872 5873 5874 5876 5877 5878 5878 5879 5879 5880 5880 5881 5882 5882 5883 5884 5885 5885 5886 5887 5887 5888 5889 5889 5890 5891 5892 5892 5893 5895 5895 5896 5897 5898
5873 5873 5873 5873 5873 5873 5874 5874 5874 5874 5874 5874 5875 5875 5875 5875 5875 5875 5875 5875 5875 5875 5875 5875 5875 5875 5875 5874 5874 5874 5874 5873 5872 5872 5872 5872 5872 5871 5871 5871 5871 5870 5870 5870 5870 5870 5870 5870 5869 5869 5869 5869 5869 5868 5868 5868 5868 5868 5867 5867 5867 5866 5866 5867 5867 5868 5868 5869 5870 5870 5871 5872 5873 5874 5876 5876 5877 5878 5878 5878 5879 5880 5880 5881 5882 5883 5883 5884 5885 5886 5886 5887 5888 5889 5889 5890 5891 5892 5893 5894 5895 5896 5896
5872 5872 5872 5872 5872 5872 5872 5872 5872 5872 5873 5873 5873 5873 5873 5874 5874 5874 5874 5874 5874 5874 5874 5874 5874 5874 5874 5874 5873 5873 5873 5872 5872 5871 5871 5871 5871 5870 5870 5870 5870 5870 5869 5869 5869 5868 5868 5868 5868 5868 5867 5867 5867 5867 5867 5866 5866 5866 5866 5865 5865 5865 5865 5865 5865 5866 5866 5867 5867 5868 5869 5869 5870 5871 5873 5874 5875 5876 5876 5876 5877 5878 5879 5879 5880 5881 5882 5882 5883 5884 5885 5885 5886 5887 5888 5889 5889 5890 5891 5893 5894 5895 5895
5870 5870 5870 5870 5870 5870 5870 5870 5870 5871 5871 5871 5871 5872 5872 5872 5872 5872 5873 5873 5873 5873 5873 5873 5873 5873 5873 5873 5872 5872 5872 5872 5871 5871 5871 5871 5870 5870 5870 5869 5869 5869 5868 5868 5868 5867 5867 5866 5866 5866 5866 5866 5865 5865 5865 5865 5865 5865 5865 5864 5864 5864 5863 5863 5863 5864 5864 5865 5865 5866 5866 5867 5868 5869 5871 5872 5873 5874 5875 5875 5875 5876 5877 5877 5878 5879 5880 5880 5881 5882 5883 5884 5885 5885 5886 5887 5888 5889 5890 5891 5894 5895 5894
5869 5869 5869 5869 5869 5869 5869 5869 5869 5869 5870 5870 5870 5870 5870 5870 5871 5871 5871 5871 5871 5871 5871 5871 5871 5871 5871 5871 5871 5871 5871 5871 5871 5870 5870 5870 5870 5870 5869 5869 5868 5868 5867 5867 5867 5866 5866 5865 5865 5865 5865 5864 5864 5864 5864 5863 5863 5863 5863 5863 5863 5862 5862 5862 5862 5862 5862 5863 5863 5864 5864 5865 5865 5867 5868 5870 5870 5871 5872 5873 5873 5874 5875 5875 5876 5877 5878 5879 5880 5881 5882 5882 5883 5884 5885 5885 5886 5887 5889 5890 5892 5893 5893
5867 5867 5867 5867 5867 5867 5867 5867 5867 5868 5868 5868 5868 5869 5869 5869 5870 5870 5870 5870 5870 5870 5870 5870 5870 5870 5870 5870 5870 5870 5870 5870 5870 5870 5870 5869 5869 5869 5868 5868 5867 5867 5866 5866 5866 5865 5865 5865 5864 5864 5863 5863 5863 5862 5862 5862 5861 5861 5861 5861 5861 5861 5860 5860 5860 5860 5860 5861 5861 5862 5862 5863 5864 5864 5865 5867 5868 5868 5869 5870 5871 5872 5872 5873 5874 5875 5876 5877 5878 5879 5880 5881 5881 5882 5883 5884 5885 5886 5887 5888 5890 5891 5891
5866 5866 5866 5865 5865 5865 5865 5866 5866 5866 5866 5866 5867 5867 5867 5868 5868 5868 5868 5869 5869 5869 5869 5869 5869 5869 5869 5869 5869 5869 5869 5869 5869 5869 5868 5868 5868 5868 5867 5867 5867 5866 5866 5865 5865 5865 5864 5864 5863 5863 5862 5862 5861 5861 5860 5860 5860 5860 5860 5860 5860 5859 5859 5859 5859 5859 5859 5859 5859 5860 5860 5861 5861 5862 5863 5864 5865 5866 5866 5867 5869 5870 5871 5872 5873 5873 5874 5875 5876 5877 5878 5879 5880 5881 5881 5882 5883 5884 5885 5887 5887 5888 5889
5864 5864 5864 5864 5864 5864 5864 5864 5864 5865 5865 5865 5865 5865 5866 5866 5866 5867 5867 5867 5867 5867 5867 5867 5867 5868 5868 5868 5868 5868 5867 5867 5867 5867 5867 5867 5867 5866 5866 5866 5865 5865 5865 5864 5864 5864 5863 5863 5862 5862 5861 5861 5860 5860 5859 5859 5859 5858 5858 5858 5858 5858 5858 5857 5857 5857 5857 5857 5857 5858 5858 5859 5859 5860 5860 5861 5862 5864 5865 5865 5865 5866 5868 5870 5872 5872 5872 5873 5874 5875 5876 5877 5878 5879 5880 5881 5882 5883 5884 5886 5886 5887 5888
5863 5863 5863 5863 5863 5863 5863 5863 5863 5863 5863 5863 5864 5864 5864 5865 5865 5865 5865 5865 5866 5866 5866 5866 5866 5866 5866 5866 5866 5866 5866 5866 5866 5866 5865 5865 5865 5865 5865 5865 5864 5864 5864 5863 5863 5862 5862 5862 5861 5861 5860 5860 5860 5859 5858 5858 5857 5857 5856 5856 5856 5856 5856 5856 5856 5855 5855 5855 5855 5856 5856 5856 5857 5858 5858 5859 5860 5861 5863 5863 5863 5865 5866 5868 5870 5870 5870 5871 5872 5874 5875 5875 5876 5877 5878 5879 5880 5881 5882 5884 5884 5884 5886
5861 5861 5861 5861 5861 5861 5861 5861 5861 5862 5862 5862 5862 5862 5863 5863 5863 5864 5864 5864 5864 5864 5864 5864 5865 5865 5865 5865 5865 5865 5865 5865 5864 5864 5864 5864 5864 5864 5863 5863 5863 5862 5862 5862 5861 5861 5861 5860 5860 5860 5859 5859 5858 5858 5857 5857 5856 5856 5855 5855 5855 5854 5855 5855 5854 5854 5854 5854 5854 5854 5854 5855 5855 5855 5856 5857 5858 5859 5861 5860 5861 5863 5865 5866 5868 5868 5869 5870 5870 5871 5872 5874 5875 5875 5876 5877 5878 5880 5880 5882 5882 5883 5884
5860 5860 5860 5860 5860 5860 5860 5860 5860 5860 5860 5860 5861 5861 5861 5861 5862 5862 5862 5863 5863 5863 5863 5863 5863 5863 5863 5863 5863 5863 5863 5863 5863 5863 5862 5862 5862 5862 5862 5861 5861 5861 5860 5860 5860 5860 5859 5859 5859 5858 5858 5858 5857 5857 5856 5856 5855 5855 5854 5854 5853 5853 5853 5853 5853 5853 5852 5852 5852 5852 5852 5853 5853 5853 5854 5855 5855 5857 5859 5859 5859 5860 5863 5864 5865 5867 5868 5869 5869 5869 5870 5871 5873 5874 5875 5875 5877 5878 5879 5880 5881 5882 5882
5859 5859 5859 5859 5859 5859 5859 5859 5859 5859 5859 5859 5859 5860 5860 5860 5860 5860 5861 5861 5861 5861 5861 5861 5861 5861 5861 5861 5861 5861 5861 5861 5861 5861 5861 5861 5860 5860 5860 5860 5860 5859 5859 5859 5858 5858 5858 5858 5857 5857 5856 5856 5856 5855 5855 5855 5854 5854 5853 5852 5852 5851 5851 5851 5851 5851 5851 5850 5850 5850 5850 5851 5851 5851 5852 5853 5853 5854 5855 5857 5857 5857 5859 5860 5863 5865 5865 5867 5867 5867 5869 5870 5870 5872 5873 5874 5875 5876 5877 5878 5880 5880 5881
5857 5857 5857 5857 5857 5857 5857 5857 5857 5857 5857 5858 5858 5858 5858 5858 5859 5859 5859 5859 5859 5860 5860 5860 5860 5860 5860 5860 5860 5860 5860 5859 5859 5859 5859 5859 5859 5859 5858 5858 5858 5858 5857 5857 5857 5856 5856 5856 5856 5855 5855 5855 5855 5854 5854 5853 5853 5852 5852 5851 5851 5850 5850 5850 5850 5849 5849 5849 5849 5849 5849 5849 5849 5849 5850 5850 5851 5852 5853 5855 5856 5856 5857 5858 5860 5863 5864 5864 5865 5866 5867 5868 5869 5870 5871 5872 5873 5874 5875 5876 5877 5878 5879
5856 5856 5856 5856 5856 5856 5856 5856 5856 5856 5856 5856 5856 5856 5857 5857 5857 5857 5857 5858 5858 5858 5858 5858 5858 5858 5858 5858 5858 5858 5858 5858 5857 5857 5857 5857 5857 5857 5857 5856 5856 5856 5856 5855 5855 5855 5855 5855 5854 5854 5854 5853 5853 5853 5852 5852 5851 5851 5850 5850 5850 5849 5849 5848 5848 5848 5848 5847 5847 5847 5847 5847 5847 5847 5848 5848 5849 5850 5850 5852 5853 5855 5855 5856 5858 5860 5862 5863 5864 5864 5865 5866 5867 5868 5869 5870 5871 5872 5873 5875 5876 5877 5878
5855 5855 5855 5855 5855 5855 5855 5855 5855 5855 5855 5855 5855 5855 5855 5855 5855 5855 5855 5856 5856 5856 5856 5856 5856 5856 5856 5856 5856 5856 5856 5856 5855 5855 5855 5855 5855 5855 5855 5855 5855 5855 5854 5854 5854 5854 5853 5853 5853 5852 5852 5852 5851 5851 5851 5850 5850 5850 5849 5849 5848 5848 5847 5847 5847 5846 5846 5846 5846 5845 5845 5845 5845 5845 5846 5846 5847 5847 5848 5849 5850 5852 5854 5854 5855 5856 5860 5861 5862 5863 5863 5864 5865 5866 5867 5868 5869 5870 5871 5872 5874 5875 5876
5853 5853 5853 5853 5853 5853 5853 5853 5853 5853 5853 5853 5853 5853 5853 5854 5854 5854 5854 5854 5854 5854 5854 5854 5855 5855 5855 5855 5855 5854 5854 5854 5854 5854 5854 5854 5854 5854 5853 5853 5853 5853 5853 5852 5852 5852 5852 5851 5851 5851 5850 5850 5850 5849 5849 5849 5848 5848 5848 5847 5847 5846 5846 5846 5845 5845 5845 5844 5844 5844 5844 5844 5844 5844 5844 5844 5845 5845 5846 5847 5848 5850 5851 5853 5853 5854 5857 5859 5860 5861 5861 5862 5863 5864 5865 5866 5867 5868 5869 5870 5872 5873 5874
5852 5852 5852 5852 5852 5851 5851 5851 5851 5851 5851 5851 5851 5852 5852 5852 5852 5852 5852 5852 5852 5852 5852 5852 5853 5853 5853 5853 5853 5853 5852 5852 5852 5852 5852 5852 5852 5852 5852 5852 5851 5851 5851 5851 5851 5850 5850 5850 5850 5849 5849 5848 5848 5848 5847 5847 5847 5846 5846 5846 5845 5845 5845 5845 5844 5844 5843 5843 5843 5842 5842 5842 5842 5842 5842 5842 5843 5843 5844 5845 5846 5847 5849 5851 5852 5853 5854 5856 5858 5859 5860 5860 5861 5862 5863 5864 5865 5866 5867 5868 5870 5871 5872
5850 5850 5850 5850 5850 5850 5850 5850 5850 5850 5850 5850 5850 5850 5850 5850 5850 5850 5850 5850 5850 5850 5850 5850 5850 5851 5851 5851 5851 5851 5851 5850 5850 5850 5850 5850 5850 5850 5850 5850 5850 5850 5850 5849 5849 5849 5849 5848 5848 5847 5847 5847 5846 5846 5845 5845 5845 5845 5845 5844 5844 5844 5843 5843 5843 5842 5842 5841 5841 5841 5840 5840 5840 5840 5840 5840 5840 5841 5842 5842 5843 5844 5845 5848 5850 5851 5852 5854 5855 5857 5858 5859 5860 5860 5861 5862 5863 5864 5865 5866 5867 5869 5870
5849 5849 5849 5849 5849 5849 5849 5849 5848 5848 5848 5848 5848 5848 5848 5848 5848 5848 5848 5848 5848 5849 5849 5849 5849 5849 5849 5849 5849 5849 5849 5849 5849 5849 5848 5848 5848 5848 5848 5848 5848 5848 5848 5848 5847 5847 5847 5846 5846 5846 5845 5845 5845 5844 5844 5843 5843 5843 5843 5842 5842 5842 5842 5841 5841 5841 5840 5840 5840 5839 5839 5839 5839 5839 5839 5839 5839 5839 5840 5840 5841 5842 5843 5844 5846 5848 5850 5851 5852 5854 5856 5857 5857 5858 5859 5860 5860 5861 5862 5864 5865 5867 5868
5848 5847 5847 5847 5847 5847 5847 5847 5847 5847 5847 5847 5847 5847 5847 5847 5846 5846 5846 5846 5846 5847 5847 5847 5847 5847 5847 5847 5847 5847 5847 5847 5847 5847 5847 5847 5847 5846 5846 5846 5846 5846 5846 5846 5845 5845 5845 5845 5845 5844 5844 5843 5843 5843 5842 5842 5841 5841 5841 5840 5840 5840 5840 5840 5840 5839 5839 5838 5838 5838 5837 5837 5837 5837 5837 5837 5837 5837 5838 5838 5839 5839 5840 5841 5843 5845 5847 5849 5850 5851 5854 5855 5855 5855 5856 5857 5859 5860 5860 5861 5863 5864 5866
5846 5846 5846 5846 5846 5845 5845 5845 5845 5845 5845 5845 5845 5845 5845 5845 5845 5845 5845 5845 5845 5845 5845 5845 5845 5845 5845 5845 5845 5845 5845 5845 5845 5845 5845 5845 5845 5845 5845 5845 5845 5844 5844 5844 5844 5843 5843 5843 5843 5842 5842 5841 5841 5841 5840 5840 5840 5839 5839 5839 5839 5838 5838 5838 5838 5837 5837 5837 5836 5836 5836 5835 5835 5835 5835 5835 5835 5835 5836 5836 5836 5837 5838 5839 5841 5843 5844 5846 5848 5849 5851 5852 5853 5854 5854 5855 5856 5857 5858 5859 5860 5862 5863
5845 5845 5845 5844 5844 5844 5844 5844 5844 5844 5844 5844 5844 5843 5843 5843 5843 5843 5843 5843 5843 5843 5843 5843 5843 5843 5843 5843 5843 5843 5843 5843 5843 5843 5843 5843 5843 5843 5843 5843 5843 5842 5842 5842 5842 5841 5841 5841 5840 5840 5840 5840 5839 5839 5839 5838 5838 5837 5837 5837 5836 5836 5836 5836 5836 5835 5835 5835 5835 5835 5834 5834 5833 5833 5833 5833 5833 5834 5834 5834 5834 5835 5835 5836 5838 5839 5840 5843 5845 5846 5848 5850 5851 5852 5853 5853 5854 5855 5856 5857 5858 5860 5861
5843 5843 5843 5843 5843 5843 5842 5842 5842 5842 5842 5842 5842 5842 5842 5842 5841 5841 5841 5841 5841 5841 5841 5841 5841 5841 5841 5841 5841 5841 5841 5841 5841 5841 5841 5841 5841 5841 5841 5840 5840 5840 5840 5840 5840 5839 5839 5839 5839 5838 5838 5838 5837 5837 5836 5836 5836 5835 5835 5835 5835 5834 5834 5834 5834 5834 5834 5833 5833 5833 5832 5832 5832 5831 5831 5831 5831 5832 5832 5832 5832 5833 5833 5834 5835 5836 5837 5840 5842 5844 5845 5847 5849 5850 5851 5852 5852 5853 5854 5855 5856 5857 5858
5841 5841 5841 5841 5841 5841 5841 5841 5840 5840 5840 5840 5840 5840 5840 5840 5840 5840 5840 5839 5839 5839 5839 5839 5839 5839 5839 5839 5839 5839 5839 5839 5839 5839 5839 5839 5839 5839 5838 5838 5838 5838 5838 5838 5837 5837 5837 5837 5836 5836 5836 5835 5835 5835 5835 5834 5834 5833 5833 5833 5833 5832 5832 5832 5832 5832 5831 5831 5831 5831 5831 5830 5830 5830 5830 5829 5829 5830 5830 5830 5830 5830 5831 5832 5832 5834 5835 5837 5839 5840 5842 5844 5846 5848 5849 5850 5850 5850 5851 5852 5853 5855 5856
5840 5840 5840 5840 5840 5839 5839 5839 5839 5839 5839 5839 5839 5838 5838 5838 5838 5838 5838 5838 5837 5837 5837 5837 5837 5837 5837 5837 5837 5837 5837 5837 5837 5837 5837 5837 5836 5836 5836 5836 5836 5836 5835 5835 5835 5835 5835 5835 5834 5834 5834 5833 5833 5833 5832 5832 5831 5831 5831 5831 5830 5830 5830 5830 5830 5830 5830 5829 5829 5829 5829 5829 5828 5828 5828 5827 5827 5827 5828 5828 5828 5829 5829 5830 5830 5831 5832 5834 5835 5837 5839 5841 5843 5845 5847 5847 5847 5847 5848 5850 5850 5852 5853
5838 5838 5838 5838 5838 5838 5837 5837 5837 5837 5837 5837 5837 5837 5836 5836 5836 5836 5836 5836 5835 5835 5835 5835 5835 5835 5835 5835 5834 5834 5834 5834 5834 5834 5834 5834 5834 5834 5834 5834 5834 5834 5833 5833 5833 5833 5832 5832 5832 5832 5832 5831 5831 5830 5830 5830 5829 5829 5829 5829 5828 5828 5828 5828 5828 5827 5827 5827 5827 5827 5827 5826 5826 5826 5826 5825 5825 5825 5825 5825 5826 5826 5827 5827 5828 5828 5830 5831 5832 5834 5836 5838 5840 5843 5845 5846 5845 5845 5845 5846 5847 5849 5850
5837 5836 5836 5836 5836 5836 5836 5835 5835 5835 5835 5835 5835 5835 5835 5835 5834 5834 5834 5834 5834 5833 5833 5833 5833 5833 5833 5832 5832 5832 5832 5832 5832 5832 5832 5832 5832 5832 5831 5831 5831 5831 5831 5831 5830 5830 5830 5830 5830 5830 5830 5829 5829 5828 5828 5827 5827 5827 5826 5826 5826 5826 5826 5825 5825 5825 5825 5825 5825 5825 5824 5824 5824 5824 5824 5823 5823 5823 5823 5823 5824 5824 5824 5825 5825 5826 5826 5828 5830 5831 5833 5835 5836 5839 5843 5845 5844 5842 5842 5842 5843 5845 5846
5835 5835 5835 5835 5834 5834 5834 5834 5834 5834 5834 5833 5833 5833 5833 5833 5832 5832 5832 5832 5831 5831 5831 5831 5831 5831 5830 5830 5830 5830 5830 5829 5829 5829 5829 5829 5829 5829 5829 5829 5829 5829 5829 5828 5828 5828 5828 5828 5828 5827 5827 5827 5827 5826 5826 5825 5825 5824 5824 5824 5824 5824 5823 5823 5823 5823 5823 5822 5822 5822 5822 5822 5822 5821 5821 5821 5821 5821 5820 5820 5821 5821 5822 5822 5823 5823 5824 5825 5826 5828 5830 5831 5832 5834 5838 5842 5844 5843 5840 5838 5839 5840 5842
5833 5833 5833 5833 5833 5832 5832 5832 5832 5832 5832 5831 5831 5831 5831 5831 5830 5830 5830 5830 5830 5829 5829 5829 5829 5829 5828 5828 5828 5827 5827 5827 5827 5827 5827 5827 5827 5827 5827 5826 5826 5826 5826 5826 5826 5826 5825 5825 5825 5825 5825 5825 5824 5824 5824 5823 5822 5822 5822 5821 5821 5821 5821 5821 5820 5820 5820 5820 5820 5820 5819 5819 5819 5819 5819 5819 5818 5818 5818 5818 5818 5818 5819 5820 5820 5821 5821 5822 5823 5824 5826 5828 5829 5830 5831 5839 5845 5846 5841 5836 5834 5835 5837
5832 5832 5831 5831 5831 5831 5830 5830 5830 5830 5830 5830 5830 5829 5829 5829 5829 5828 5828 5828 5828 5827 5827 5827 5827 5826 5826 5826 5825 5825 5825 5825 5824 5824 5824 5824 5824 5824 5824 5824 5824 5824 5824 5824 5823 5823 5823 5823 5823 5823 5822 5822 5822 5822 5821 5821 5820 5820 5819 5819 5819 5819 5819 5818 5818 5818 5818 5817 5817 5817 5817 5817 5816 5816 5816 5816 5816 5816 5815 5815 5815 5815 5816 5816 5817 5818 5819 5819 5820 5820 5822 5825 5826 5826 5827 5834 5841 5842 5836 5830 5828 5829 5832
5830 5830 5830 5830 5829 5829 5829 5829 5828 5828 5828 5828 5828 5827 5827 5827 5827 5826 5826 5826 5825 5825 5825 5825 5825 5824 5824 5824 5823 5823 5822 5822 5822 5822 5822 5822 5822 5821 5821 5821 5821 5821 5821 5821 5821 5820 5820 5820 5820 5820 5820 5820 5819 5819 5819 5819 5818 5818 5817 5816 5816 5816 5816 5816 5815 5815 5815 5815 5815 5814 5814 5814 5814 5814 5813 5813 5813 5813 5813 5813 5813 5812 5812 5813 5814 5815 5815 5816 5816 5817 5818 5820 5821 5821 5822 5826 5829 5826 5822 5820 5820 5823 5828
5828 5828 5828 5828 5828 5827 5827 5827 5827 5826 5826 5826 5826 5825 5825 5825 5825 5825 5824 5824 5823 5823 5823 5823 5822 5822 5822 5821 5821 5820 5820 5820 5820 5820 5819 5819 5819 5819 5819 5819 5819 5819 5819 5818 5818 5818 5818 5818 5817 5817 5817 5817 5817 5817 5816 5816 5816 5815 5815 5814 5814 5813 5813 5813 5813 5813 5812 5812 5812 5812 5811 5811 5811 5811 5810 5810 5810 5810 5810 5810 5810 5810 5809 5810 5810 5811 5812 5813 5813 5813 5814 5815 5817 5817 5816 5819 5821 5822 5820 5816 5815 5818 5824
5827 5826 5826 5826 5826 5825 5825 5825 5825 5825 5824 5824 5824 5824 5823 5823 5823 5823 5822 5822 5821 5821 5820 5820 5820 5820 5819 5819 5819 5818 5818 5817 5817 5817 5817 5817 5816 5816 5816 5816 5816 5816 5816 5815 5815 5815 5815 5815 5815 5815 5815 5815 5814 5814 5814 5814 5813 5813 5812 5811 5811 5810 5810 5810 5810 5810 5810 5810 5809 5809 5809 5809 5808 5808 5808 5808 5807 5807 5807 5807 5806 5806 5806 5806 5806 5807 5808 5809 5810 5810 5810 5810 5812 5813 5812 5814 5815 5818 5823 5819 5815 5817 5821
5825 5825 5825 5824 5824 5824 5823 5823 5823 5823 5822 5822 5822 5822 5821 5821 5821 5820 5820 5820 5819 5819 5818 5818 5818 5817 5817 5817 5816 5816 5815 5815 5815 5815 5815 5814 5814 5814 5814 5814 5814 5813 5813 5813 5813 5812 5812 5812 5812 5812 5812 5812 5811 5811 5811 5811 5810 5810 5810 5809 5808 5808 5807 5807 5807 5807 5806 5806 5806 5806 5806 5805 5805 5805 5805 5805 5804 5804 5804 5803 5803 5803 5803 5802 5802 5803 5804 5805 5805 5806 5806 5806 5807 5808 5810 5810 5811 5813 5819 5819 5818 5818 5820
5823 5823 5823 5822 5822 5822 5821 5821 5821 5820 5820 5820 5820 5820 5819 5819 5819 5818 5818 5818 5817 5816 5816 5815 5815 5815 5815 5814 5814 5813 5813 5812 5812 5812 5812 5811 5811 5811 5811 5811 5811 5810 5810 5810 5810 5810 5810 5809 5809 5809 5809 5809 5809 5808 5808 5808 5808 5807 5807 5806 5805 5805 5804 5804 5804 5803 5803 5803 5803 5803 5803 5803 5802 5802 5802 5801 5801 5800 5800 5800 5800 5799 5799 5799 5798 5798 5799 5800 5801 5802 5802 5802 5802 5803 5806 5808 5809 5810 5813 5817 5819 5820 5820
5821 5821 5820 5820 5820 5820 5820 5819 5819 5819 5818 5818 5818 5817 5817 5817 5816 5816 5816 5815 5815 5814 5814 5813 5813 5812 5812 5812 5811 5811 5810 5810 5810 5810 5809 5809 5809 5809 5808 5808 5808 5808 5808 5807 5807 5807 5807 5806 5806 5806 5806 5806 5805 5805 5805 5805 5805 5804 5804 5803 5802 5802 5801 5801 5800 5800 5800 5800 5800 5800 5799 5799 5799 5799 5798 5798 5797 5797 5796 5796 5795 5795 5795 5795 5794 5794 5794 5795 5796 5797 5798 5798 5797 5798 5800 5804 5807 5809 5810 5813 5817 5820 5820
5819 5819 5819 5818 5818 5818 5817 5817 5817 5816 5816 5816 5815 5815 5815 5815 5814 5814 5814 5813 5813 5812 5811 5810 5810 5810 5809 5809 5809 5808 5808 5807 5807 5807 5806 5806 5806 5806 5805 5805 5805 5805 5805 5804 5804 5804 5804 5804 5803 5803 5803 5803 5802 5802 5802 5802 5801 5801 5800 5800 5799 5799 5798 5798 5797 5797 5796 5796 5796 5796 5795 5795 5795 5795 5794 5794 5793 5793 5792 5792 5791 5791 5790 5790 5790 5790 5789 5790 5791 5792 5793 5793 5793 5794 5795 5799 5802 5805 5807 5809 5811 5815 5819
5817 5817 5816 5816 5816 5815 5815 5815 5815 5814 5814 5814 5813 5813 5812 5812 5812 5811 5811 5811 5810 5810 5809 5808 5807 5807 5806 5806 5806 5805 5805 5805 5805 5804 5804 5803 5803 5803 5803 5803 5802 5802 5802 5801 5801 5801 5801 5801 5800 5800 5800 5800 5799 5799 5799 5798 5798 5798 5797 5797 5796 5796 5795 5795 5794 5793 5793 5793 5792 5792 5791 5791 5791 5791 5790 5790 5789 5788 5788 5787 5786 5786 5786 5785 5785 5785 5785 5785 5785 5787 5788 5789 5789 5789 5791 5794 5797 5801 5803 5805 5806 5809 5814
5815 5815 5814 5814 5814 5813 5813 5813 5812 5812 5812 5811 5811 5810 5810 5810 5809 5809 5809 5809 5808 5808 5807 5806 5805 5805 5804 5803 5803 5803 5802 5802 5802 5801 5801 5800 5800 5800 5800 5800 5800 5799 5799 5799 5798 5798 5798 5798 5797 5797 5796 5796 5796 5796 5796 5795 5795 5795 5794 5794 5793 5792 5792 5791 5790 5790 5789 5789 5788 5788 5787 5787 5786 5786 5786 5785 5784 5783 5783 5782 5781 5780 5780 5780 5780 5780 5780 5779 5780 5781 5783 5784 5784 5785 5786 5789 5793 5796 5800 5801 5802 5804 5808
5813 5813 5812 5812 5811 5811 5811 5810 5810 5810 5810 5809 5809 5808 5808 5807 5807 5806 5806 5806 5806 5805 5805 5804 5803 5802 5802 5801 5800 5800 5800 5799 5799 5798 5798 5798 5797 5797 5797 5797 5797 5796 5796 5796 5796 5795 5795 5795 5795 5794 5793 5793 5793 5793 5792 5792 5792 5791 5791 5790 5790 5789 5788 5788 5787 5786 5785 5785 5785 5784 5783 5782 5782 5781 5780 5780 5779 5778 5777 5776 5775 5775 5774 5774 5774 5774 5774 5774 5775 5775 5777 5779 5780 5780 5782 5785 5788 5792 5795 5798 5799 5802 5806
5811 5810 5810 5810 5809 5809 5809 5808 5808 5807 5807 5807 5806 5806 5805 5805 5804 5804 5803 5803 5803 5803 5802 5801 5801 5800 5799 5799 5798 5797 5797 5796 5796 5795 5795 5795 5795 5794 5794 5794 5794 5794 5794 5793 5793 5793 5793 5792 5792 5791 5790 5790 5790 5790 5789 5789 5789 5788 5788 5787 5786 5785 5785 5784 5783 5782 5782 5781 5780 5780 5779 5778 5777 5776 5775 5774 5773 5772 5771 5770 5769 5768 5768 5768 5768 5768 5769 5769 5769 5770 5771 5773 5774 5775 5777 5780 5783 5787 5790 5794 5799 5803 5807
5809 5808 5808 5808 5807 5807 5806 5806 5805 5805 5805 5804 5804 5803 5803 5802 5802 5801 5801 5800 5800 5800 5800 5799 5799 5798 5797 5796 5796 5795 5795 5794 5793 5793 5792 5792 5792 5791 5791 5791 5791 5791 5791 5790 5790 5790 5790 5790 5789 5788 5788 5787 5787 5787 5786 5786 5785 5785 5784 5784 5783 5782 5781 5780 5780 5779 5778 5777 5776 5775 5774 5773 5772 5770 5769 5768 5767 5766 5765 5763 5762 5761 5760 5760 5761 5761 5762 5762 5763 5764 5765 5767 5768 5770 5773 5775 5779 5782 5786 5791 5797 5800 5801
5807 5806 5806 5805 5805 5805 5804 5804 5803 5803 5802 5802 5801 5801 5800 5800 5799 5799 5799 5798 5798 5798 5797 5797 5796 5795 5795 5794 5794 5793 5792 5792 5791 5790 5790 5789 5789 5789 5788 5788 5788 5788 5788 5788 5787 5787 5787 5787 5786 5785 5785 5785 5784 5784 5783 5783 5782 5781 5781 5780 5779 5779 5778 5777 5776 5775 5774 5773 5772 5771 5770 5768 5767 5765 5764 5762 5760 5759 5757 5756 5755 5753 5753 5753 5753 5754 5755 5755 5756 5758 5759 5761 5763 5764 5767 5770 5773 5778 5782 5787 5790 5790 5791
5805 5804 5804 5803 5803 5802 5802 5801 5801 5800 5800 5799 5799 5798 5798 5797 5797 5796 5796 5795 5795 5795 5795 5795 5794 5793 5793 5792 5791 5791 5790 5790 5789 5788 5787 5787 5786 5786 5786 5786 5785 5785 5785 5785 5785 5785 5785 5784 5784 5783 5783 5782 5782 5781 5780 5780 5779 5778 5777 5777 5776 5775 5774 5773 5772 5771 5770 5769 5767 5766 5765 5763 5762 5760 5758 5756 5754 5752 5750 5748 5746 5745 5744 5744 5745 5746 5747 5748 5750 5751 5753 5755 5757 5759 5761 5764 5768 5772 5777 5780 5781 5783 5785
5803 5802 5802 5801 5800 5800 5800 5799 5798 5798 5797 5797 5796 5796 5795 5795 5794 5794 5793 5793 5793 5792 5792 5792 5791 5791 5790 5790 5789 5789 5788 5787 5786 5786 5785 5785 5784 5784 5783 5783 5783 5783 5782 5782 5782 5781 5782 5781 5781 5780 5780 5780 5779 5778 5778 5777 5776 5775 5774 5773 5772 5771 5770 5769 5768 5767 5765 5764 5763 5761 5760 5758 5756 5754 5752 5750 5747 5745 5742 5740 5738 5736 5735 5735 5736 5737 5739 5740 5742 5745 5747 5749 5751 5753 5756 5758 5762 5766 5770 5773 5775 5779 5783
5801 5800 5800 5799 5799 5798 5797 5797 5796 5795 5795 5795 5794 5794 5793 5792 5792 5791 5791 5790 5790 5790 5790 5789 5789 5789 5788 5787 5787 5786 5785 5785 5784 5784 5783 5783 5782 5781 5781 5780 5780 5780 5780 5779 5779 5779 5779 5779 5779 5778 5777 5776 5776 5775 5775 5774 5773 5772 5771 5770 5769 5768 5767 5765 5764 5763 5761 5760 5758 5756 5755 5753 5750 5748 5746 5743 5740 5737 5734 5731 5729 5727 5726 5726 5726 5728 5730 5732 5735 5738 5740 5743 5745 5748 5750 5753 5756 5759 5763 5767 5771 5776 5780
5799 5798 5797 5797 5796 5796 5795 5794 5794 5793 5793 5792 5792 5791 5791 5790 5790 5789 5788 5788 5787 5787 5787 5787 5786 5786 5786 5785 5785 5784 5783 5782 5782 5782 5781 5780 5780 5780 5779 5778 5778 5778 5777 5776 5776 5775 5775 5776 5775 5775 5774 5773 5773 5772 5772 5771 5770 5769 5768 5766 5765 5764 5763 5761 5760 5759 5757 5755 5754 5752 5750 5748 5745 5742 5740 5736 5733 5730 5726 5723 5720 5718 5717 5716 5717 5719 5722 5725 5728 5731 5734 5737 5740 5743 5745 5748 5751 5754 5758 5763 5768 5773 5777
5796 5796 5795 5795 5794 5793 5793 5792 5791 5791 5790 5790 5789 5789 5788 5788 5787 5786 5786 5785 5785 5785 5784 5784 5784 5784 5784 5783 5782 5781 5781 5780 5780 5779 5779 5779 5778 5777 5776 5776 5775 5775 5775 5774 5773 5773 5772 5772 5772 5772 5771 5770 5770 5769 5768 5768 5767 5766 5765 5763 5761 5760 5759 5757 5756 5755 5753 5751 5749 5747 5745 5742 5740 5736 5733 5730 5726 5722 5718 5715 5712 5709 5708 5708 5709 5711 5714 5717 5721 5725 5728 5732 5735 5737 5740 5743 5747 5750 5754 5758 5763 5768 5772
5794 5794 5793 5792 5792 5791 5790 5790 5789 5789 5788 5787 5787 5786 5786 5785 5785 5784 5784 5783 5782 5782 5782 5782 5781 5781 5781 5781 5780 5780 5779 5778 5777 5777 5777 5776 5775 5775 5774 5773 5773 5772 5772 5771 5770 5770 5769 5769 5769 5768 5767 5767 5766 5765 5765 5764 5763 5762 5761 5760 5758 5757 5755 5754 5752 5751 5749 5747 5745 5742 5740 5737 5734 5730 5727 5723 5719 5714 5710 5706 5704 5701 5700 5700 5701 5704 5706 5710 5714 5719 5722 5726 5730 5732 5735 5739 5743 5747 5751 5754 5757 5761 5765
5792 5791 5790 5790 5790 5789 5788 5788 5787 5786 5786 5785 5785 5784 5783 5783 5782 5782 5781 5780 5780 5780 5779 5779 5779 5779 5779 5779 5779 5778 5777 5776 5775 5775 5774 5774 5773 5773 5772 5771 5770 5770 5769 5768 5767 5766 5766 5765 5765 5765 5764 5763 5763 5762 5761 5760 5760 5758 5757 5756 5755 5753 5752 5750 5749 5747 5745 5743 5741 5738 5735 5732 5729 5725 5721 5716 5711 5707 5703 5699 5696 5695 5694 5694 5695 5698 5701 5705 5709 5713 5717 5721 5724 5727 5730 5735 5739 5743 5746 5750 5753 5756 5760
5790 5789 5788 5788 5787 5786 5786 5785 5785 5784 5783 5783 5782 5782 5781 5780 5780 5780 5779 5778 5778 5777 5777 5776 5776 5776 5776 5776 5776 5775 5775 5774 5774 5773 5772 5771 5771 5771 5770 5770 5769 5769 5767 5766 5765 5764 5763 5762 5761 5760 5760 5760 5759 5759 5758 5757 5756 5755 5754 5752 5751 5750 5749 5747 5745 5744 5741 5739 5737 5734 5730 5727 5723 5720 5715 5710 5705 5701 5698 5694 5691 5690 5689 5690 5691 5693 5696 5700 5705 5709 5712 5716 5720 5723 5726 5730 5735 5739 5742 5745 5748 5751 5755
5787 5787 5786 5785 5785 5784 5784 5783 5782 5782 5781 5780 5780 5779 5779 5778 5777 5777 5776 5776 5775 5775 5774 5774 5773 5773 5773 5773 5773 5773 5772 5772 5771 5771 5770 5770 5769 5768 5768 5768 5767 5767 5766 5765 5764 5762 5760 5759 5758 5757 5756 5756 5755 5755 5755 5754 5753 5751 5750 5749 5748 5747 5746 5744 5742 5740 5738 5735 5732 5730 5726 5723 5719 5715 5710 5705 5700 5696 5693 5690 5688 5687 5686 5686 5687 5690 5695 5699 5702 5705 5709 5712 5715 5719 5722 5727 5731 5735 5737 5740 5744 5747 5750
5785 5784 5784 5783 5783 5782 5781 5781 5780 5779 5779 5778 5777 5777 5776 5775 5775 5774 5774 5773 5773 5772 5771 5771 5770 5770 5770 5770 5770 5770 5770 5769 5769 5768 5768 5768 5767 5766 5766 5765 5765 5765 5764 5764 5763 5761 5760 5758 5756 5754 5754 5753 5752 5752 5751 5750 5750 5748 5747 5746 5745 5744 5743 5741 5739 5737 5734 5731 5728 5725 5722 5719 5715 5710 5706 5701 5697 5693 5689 5687 5685 5685 5683 5684 5686 5690 5695 5697 5698 5701 5705 5709 5712 5715 5719 5723 5727 5730 5733 5736 5740 5743 5745
5783 5782 5781 5781 5780 5780 5779 5778 5778 5777 5776 5776 5775 5775 5774 5773 5773 5772 5771 5771 5770 5770 5769 5769 5768 5768 5767 5767 5766 5766 5766 5766 5766 5765 5765 5765 5765 5764 5763 5763 5763 5762 5761 5761 5761 5760 5759 5757 5755 5753 5752 5751 5750 5749 5749 5748 5747 5745 5744 5743 5742 5741 5740 5738 5736 5733 5730 5728 5725 5722 5718 5715 5711 5707 5703 5698 5694 5691 5688 5685 5683 5682 5682 5682 5685 5687 5690 5692 5695 5698 5702 5705 5709 5712 5716 5720 5723 5726 5729 5732 5735 5738 5741
5780 5780 5779 5779 5778 5777 5777 5776 5775 5775 5774 5773 5773 5772 5771 5771 5770 5770 5769 5768 5768 5767 5766 5766 5765 5765 5765 5764 5764 5763 5763 5763 5762 5762 5762 5762 5761 5761 5761 5760 5760 5760 5760 5759 5759 5758 5757 5756 5754 5752 5750 5749 5748 5747 5746 5745 5744 5742 5741 5740 5739 5738 5736 5734 5732 5730 5727 5725 5722 5719 5715 5712 5708 5704 5700 5697 5693 5689 5686 5684 5683 5682 5682 5682 5683 5685 5687 5690 5692 5696 5700 5703 5706 5710 5713 5717 5720 5723 5726 5729 5731 5734 5737
5778 5777 5777 5776 5775 5775 5774 5774 5773 5772 5772 5771 5770 5770 5769 5768 5768 5767 5766 5766 5765 5765 5764 5764 5763 5762 5762 5761 5761 5760 5760 5760 5759 5759 5759 5758 5758 5758 5758 5757 5757 5757 5757 5756 5756 5756 5755 5754 5753 5752 5749 5747 5746 5745 5744 5743 5741 5740 5738 5737 5736 5735 5733 5731 5729 5727 5725 5722 5719 5716 5713 5709 5705 5702 5699 5696 5693 5690 5686 5684 5683 5682 5683 5683 5683 5684 5686 5688 5691 5694 5699 5702 5705 5708 5711 5714 5717 5720 5723 5725 5728 5730 5733
5775 5775 5774 5774 5773 5772 5772 5771 5770 5770 5769 5769 5768 5767 5766 5766 5765 5765 5764 5763 5763 5762 5761 5761 5760 5760 5759 5759 5758 5758 5757 5756 5756 5755 5755 5755 5754 5754 5754 5754 5754 5753 5753 5753 5753 5753 5752 5752 5751 5750 5749 5746 5744 5742 5741 5740 5739 5737 5735 5734 5733 5731 5730 5728 5726 5724 5722 5719 5716 5713 5710 5707 5703 5700 5697 5694 5693 5691 5688 5685 5684 5683 5683 5684 5685 5685 5687 5689 5692 5695 5697 5700 5704 5706 5709 5712 5715 5717 5720 5723 5725 5727 5730
5773 5772 5772 5771 5770 5770 5769 5769 5768 5767 5767 5766 5765 5765 5764 5763 5763 5762 5761 5760 5760 5760 5759 5758 5758 5757 5757 5756 5756 5755 5755 5754 5753 5752 5752 5751 5751 5750 5750 5750 5750 5750 5750 5750 5749 5749 5749 5749 5749 5748 5747 5745 5743 5740 5739 5737 5736 5734 5733 5731 5730 5729 5727 5726 5724 5721 5719 5716 5714 5711 5708 5705 5702 5699 5696 5693 5692 5691 5689 5687 5685 5683 5684 5685 5686 5687 5688 5690 5693 5696 5698 5700 5702 5704 5708 5710 5712 5715 5717 5720 5722 5724 5726
5770 5770 5769 5768 5768 5767 5767 5766 5765 5765 5764 5764 5763 5762 5761 5761 5760 5760 5759 5758 5757 5757 5756 5756 5755 5755 5754 5754 5753 5753 5752 5751 5751 5750 5749 5748 5748 5747 5747 5746 5746 5745 5745 5745 5745 5745 5745 5745 5745 5744 5744 5743 5742 5740 5737 5735 5733 5732 5730 5729 5728 5726 5725 5723 5721 5719 5716 5714 5711 5709 5706 5703 5700 5698 5695 5693 5691 5689 5687 5686 5685 5684 5685 5685 5687 5688 5689 5691 5693 5696 5698 5698 5700 5702 5706 5708 5710 5713 5715 5718 5720 5721 5723
5767 5767 5766 5765 5765 5765 5764 5763 5763 5762 5761 5761 5760 5760 5759 5758 5757 5757 5756 5755 5755 5754 5753 5753 5752 5752 5751 5751 5750 5750 5750 5749 5748 5748 5747 5746 5745 5744 5744 5743 5742 5742 5742 5741 5741 5741 5741 5741 5741 5740 5740 5740 5739 5738 5736 5734 5731 5729 5727 5726 5725 5723 5722 5721 5719 5716 5714 5712 5710 5707 5705 5702 5700 5697 5695 5693 5690 5689 5688 5686 5685 5685 5686 5686 5688 5689 5690 5691 5694 5697 5698 5700 5701 5703 5705 5707 5709 5712 5714 5716 5718 5719 5721